User: anonymous   Login
Location: Unspecified
(0.0000°N, 0.0000°E)
Time: 00:13:04
(UTC+00:00)
Language:

STARLINK-33822 - Orbit

View from above orbital plane
View from above orbital plane
View from above satellite
View from above satellite

Ground track
Ground track

The orbit is defined by the following mean orbital elements,

1 63658U          26144.72518098 +.00000000 +00000-0 +45961-3 0 00006
2 63658  42.9977 295.9539 0001227 276.5665  83.5046 15.27583930    08
Epoch (UTC): 24 May 2026 17:24:15
Eccentricity: 0.0001227
inclination: 42.9977°
perigee height: 482 km
apogee height: 484 km
right ascension of ascending node: 295.9539°
argument of perigee: 276.5665°
revolutions per day: 15.27583930
mean anomaly at epoch: 83.5046°

The dashed part of the orbit path shows where the satellite is in the earth's shadow,  

DLR